Date String (YYYY-MM-DD hh:mm:ss) UTC,Instrument flags,Ambient pressure (hPa),Sample flow (lpm),Bypass flow (lpm),Sample temperature (°C),Ambient temperature (°C),ASC tube jacket temperature (°C),LED temperature (°C),Box temperature (°C),Sample RH (%),Span deviation,Mass concentration (μg/m³),Mass concentration (μg/m³),Mass concentration (μg/m³)
DateTimeUTC,F1_M11,P_M11,Q1_M11,Q2_M11,T1_M11,T2_M11,T3_M11,T4_M11,T5_M11,U1_M11,ZSPAN_M11,X0_M11,X2_M11,X1_M11
2022-09-13 07:00:00,,0826.9,5.00,0.00,30.4,28.8,00.0,39.2,32.1,10.0,0002.5,0016.43,0009.68,0009.05
2022-09-13 07:01:00,,0826.8,5.00,0.00,30.4,28.8,00.0,39.2,32.1,10.4,0002.5,0016.26,0009.65,0009.05
2022-09-13 07:02:00,,0826.8,5.01,0.00,30.4,28.8,00.0,39.3,32.1,10.4,0002.8,0016.26,0009.65,0009.04
2022-09-13 07:03:00,,0826.9,5.00,0.00,30.4,28.8,00.0,39.3,32.1,10.1,0002.9,0016.51,0009.63,0009.03
2022-09-13 07:04:00,,0827.0,4.99,0.00,30.4,28.8,00.0,39.2,32.2,10.1,0002.3,0015.52,0009.59,0009.02
2022-09-13 07:05:00,,0827.0,4.99,0.00,30.4,28.8,00.0,39.2,32.1,09.7,0002.3,0015.40,0009.60,0009.05
2022-09-13 07:06:00,,0827.0,5.00,0.00,30.4,28.8,00.0,39.2,32.1,09.9,0002.6,0015.25,0009.61,0009.05
2022-09-13 07:07:00,,0827.0,5.01,0.00,30.4,28.8,00.0,39.2,32.1,09.8,0002.2,0015.14,0009.62,0009.06
2022-09-13 07:08:00,,0827.2,4.99,0.00,30.4,28.8,00.0,39.2,32.1,09.7,0001.5,0014.51,0009.62,0009.07
2022-09-13 07:09:00,,0827.0,5.00,0.00,30.4,28.8,00.0,39.2,32.1,09.6,0001.8,0014.37,0009.58,0009.06
2022-09-13 07:10:00,,0827.1,5.00,0.00,30.4,28.8,00.0,39.2,32.2,09.8,0001.4,0013.94,0009.56,0009.07
2022-09-13 07:11:00,,0827.2,4.99,0.00,30.4,28.8,00.0,39.2,32.1,09.6,0001.0,0013.70,0009.55,0009.06
2022-09-13 07:12:00,,0827.2,5.02,0.00,30.4,28.8,00.0,39.2,32.1,09.6,0001.1,0013.67,0009.54,0009.04
2022-09-13 07:13:00,,0827.1,5.00,0.00,30.4,28.8,00.0,39.2,32.1,09.7,0001.5,0013.68,0009.56,0009.02
2022-09-13 07:14:00,,0826.9,4.99,0.00,30.4,28.8,00.0,39.2,32.1,09.8,0001.8,0013.36,0009.53,0008.99
2022-09-13 07:15:00,,0827.1,5.01,0.00,30.4,28.8,00.0,39.2,32.1,09.9,0001.8,0013.39,0009.55,0008.98
2022-09-13 07:16:00,,0826.9,5.01,0.00,30.4,28.8,00.0,39.2,32.1,09.8,0001.9,0013.54,0009.51,0008.93
2022-09-13 07:17:00,,0827.0,4.99,0.00,30.4,28.8,00.0,39.2,32.1,09.7,0002.4,0013.60,0009.49,0008.90
2022-09-13 07:18:00,,0826.9,5.01,0.00,30.4,28.8,00.0,39.2,32.1,09.9,0002.3,0013.62,0009.46,0008.87
2022-09-13 07:19:00,,0827.0,5.00,0.00,30.4,28.8,00.0,39.2,32.1,10.2,0002.9,0013.61,0009.43,0008.84
2022-09-13 07:20:00,,0826.9,5.01,0.00,30.4,28.8,00.0,39.2,32.1,09.9,0003.5,0013.48,0009.39,0008.81
2022-09-13 07:21:00,,0827.0,5.00,0.00,30.4,28.8,00.0,39.2,32.1,09.8,0003.4,0013.48,0009.36,0008.77
2022-09-13 07:22:00,,0827.0,4.99,0.00,30.4,28.8,00.0,39.2,32.1,09.8,0003.3,0013.54,0009.35,0008.74
2022-09-13 07:23:00,,0827.1,5.00,0.00,30.4,28.8,00.0,39.2,32.1,10.0,0003.1,0013.62,0009.35,0008.73
2022-09-13 07:24:00,,0827.2,5.00,0.00,30.4,28.8,00.0,39.2,32.1,10.1,0002.7,0013.58,0009.27,0008.70
2022-09-13 07:25:00,,0827.0,5.01,0.00,30.4,28.7,00.0,39.2,32.1,10.0,0002.7,0013.59,0009.26,0008.70
2022-09-13 07:26:00,,0827.2,5.00,0.00,30.4,28.8,00.0,39.2,32.1,10.1,0002.9,0013.06,0009.19,0008.67
2022-09-13 07:27:00,,0826.9,5.01,0.00,30.4,28.8,00.0,39.2,32.1,10.3,0003.2,0012.81,0009.17,0008.64
2022-09-13 07:28:00,,0827.1,5.00,0.00,30.4,28.8,00.0,39.2,32.1,09.9,0002.6,0013.01,0009.18,0008.64
2022-09-13 07:29:00,,0826.9,4.99,0.00,30.4,28.7,00.0,39.2,32.1,09.9,0003.1,0013.38,0009.14,0008.61
2022-09-13 07:30:00,,0826.8,5.01,0.00,30.4,28.8,00.0,39.2,32.1,09.8,0003.2,0013.40,0009.12,0008.59
2022-09-13 07:31:00,,0826.8,5.00,0.00,30.4,28.8,00.0,39.2,32.1,09.7,0002.7,0013.53,0009.11,0008.57
2022-09-13 07:32:00,,0826.8,4.99,0.00,30.3,28.7,00.0,39.2,32.0,09.7,0002.3,0013.91,0009.14,0008.57
2022-09-13 07:33:00,,0826.8,4.99,0.00,30.3,28.7,00.0,39.2,32.1,09.7,0002.5,0013.92,0009.10,0008.54
2022-09-13 07:34:00,,0826.8,5.01,0.00,30.3,28.7,00.0,39.2,32.1,09.6,0003.1,0015.37,0009.09,0008.53
2022-09-13 07:35:00,,0826.8,5.00,0.00,30.3,28.8,00.0,39.2,32.1,09.5,0003.2,0015.53,0009.06,0008.52
2022-09-13 07:36:00,,0826.8,5.00,0.00,30.4,28.8,00.0,39.2,32.1,09.5,0002.9,0015.57,0009.07,0008.50
2022-09-13 07:37:00,,0826.8,5.00,0.00,30.4,28.8,00.0,39.2,32.1,09.5,0002.5,0015.85,0009.07,0008.49
2022-09-13 07:38:00,,0826.8,5.00,0.00,30.4,28.8,00.0,39.2,32.1,09.6,0002.7,0015.80,0009.05,0008.50
2022-09-13 07:39:00,,0826.7,5.00,0.00,30.3,28.8,00.0,39.2,32.1,09.6,0002.0,0015.55,0009.00,0008.48
2022-09-13 07:40:00,,0826.8,5.00,0.00,30.4,28.8,00.0,39.2,32.1,09.7,0001.6,0015.22,0009.01,0008.49
2022-09-13 07:41:00,,0826.8,5.00,0.00,30.3,28.7,00.0,39.2,32.1,09.7,0001.4,0015.75,0008.99,0008.48
2022-09-13 07:42:00,,0826.8,5.00,0.00,30.3,28.7,00.0,39.2,32.1,09.9,0001.0,0015.79,0008.97,0008.48
2022-09-13 07:43:00,,0826.8,5.01,0.00,30.3,28.7,00.0,39.2,32.1,09.6,0001.1,0016.30,0008.97,0008.49
2022-09-13 07:44:00,,0826.8,5.00,0.00,30.3,28.7,00.0,39.2,32.1,09.7,0001.2,0016.57,0009.00,0008.50
2022-09-13 07:45:00,,0826.8,4.99,0.00,30.3,28.8,00.0,39.2,32.1,09.7,0001.4,0016.01,0009.01,0008.51
2022-09-13 07:46:00,,0826.7,5.02,0.00,30.3,28.8,00.0,39.2,32.1,10.0,0000.9,0015.69,0009.05,0008.53
2022-09-13 07:47:00,,0826.7,5.00,0.00,30.3,28.8,00.0,39.2,32.1,09.7,0001.3,0015.73,0009.08,0008.54
2022-09-13 07:48:00,,0826.8,5.00,0.00,30.3,28.8,00.0,39.1,32.1,09.6,0002.1,0015.46,0009.08,0008.56
2022-09-13 07:49:00,,0826.7,5.00,0.00,30.3,28.7,00.0,39.1,32.0,09.6,0001.9,0015.35,0009.07,0008.55
2022-09-13 07:50:00,,0826.7,5.00,0.00,30.3,28.7,00.0,39.1,32.0,09.6,0002.0,0015.72,0009.10,0008.55
2022-09-13 07:51:00,,0826.7,5.00,0.00,30.3,28.7,00.0,39.1,32.0,09.8,0002.0,0015.67,0009.11,0008.55
2022-09-13 07:52:00,,0826.7,5.01,0.00,30.3,28.7,00.0,39.1,32.0,09.5,0001.7,0014.94,0009.11,0008.56
2022-09-13 07:53:00,,0826.7,5.00,0.00,30.3,28.7,00.0,39.1,32.0,09.5,0001.8,0014.77,0009.13,0008.58
2022-09-13 07:54:00,,0826.7,5.00,0.00,30.3,28.7,00.0,39.1,32.0,09.5,0001.7,0013.93,0009.12,0008.58
2022-09-13 07:55:00,,0826.7,5.01,0.00,30.3,28.6,00.0,39.1,32.0,09.5,0001.4,0013.62,0009.11,0008.57
2022-09-13 07:56:00,,0826.8,4.99,0.00,30.3,28.6,00.0,39.1,32.0,09.4,0000.9,0012.98,0009.09,0008.56
2022-09-13 07:57:00,,0826.7,4.99,0.00,30.3,28.6,00.0,39.1,32.0,09.4,0001.1,0012.83,0009.08,0008.53
2022-09-13 07:58:00,,0826.7,5.01,0.00,30.3,28.6,00.0,39.1,32.0,09.4,0000.5,0012.87,0009.09,0008.51
2022-09-13 07:59:00,,0826.7,4.99,0.00,30.2,28.6,00.0,39.1,32.0,09.4,0000.2,0012.89,0009.10,0008.51
